OBJECT G, 61233

Orbit data source: Space-Track

You're viewing an Uncataloged Satellite

Recently launched and/or uncataloged satellites may have evolving metadata. Metadata may include but not limited to: Owner, Maufacturer, Bus, Motor, and Mission.

OBJECT G, 61233 is a satellite owned by Guoxing (CN) in SSO that was launched on Tue, 24 Sep 2024 UTC via a JIELONG-3 launch vehicle from the Yellow Sea Launch Area, China (YSLA). Unknown objects in Earth's orbit typically refer to objects detected orbiting the Earth but have not yet been identified or cataloged. These objects could be anything from previously untracked satellites, spent rocket stages, debris from satellite collisions, or even natural meteoroids temporarily captured by Earth's gravity.

Loading next visibility...
Identifier
61233, 2024-173G
Orbit
SSO
Last TLE update
9 hours ago
Origin
Flag of CNGUOX (CN / PRC)
Manufacturer
GUOX/HISTAR
Mission
Operational Commercial Technology
Bus & Motor
XSD, Unknown motor
Mass
~25 kg wet, ~25 kg dry
Launch date (UTC)
2024-09-24 (9 months ago)
Launch vehicle
JIELONG-3
Launch site
Yellow Sea Launch Area, China (YSLA)
Object type
Unknown
Shape & HBR
Box + 3 Pan, 0.3 m
Radar Cross Section
0.135 m², Medium (>0.1 m² and < 1m²)

Expand to show TLE details & history

TLE from 9 hours ago
0 OBJECT G
1 61233U 24173G   25182.86451271  .00181539  00000-0  11435-2 0  9997
2 61233  97.3651 266.2811 0002028 266.1363  93.9671 15.76151821 43282
Epoch: 2025-07-01T20:44Z
TLE epoch observation values (Epoch: 2025-07-01T20:44:53.898Z)
Latitude
0.00003°
Longitude
34.90267°
Altitude
344.617 km
Speed
7.702 km/s
True Right ascension
17h 45m 07s
True Declination
0° 00' 00"
Sunlit
Object was in full shadow at epoch
Visualization orbit readout
Latitude
-25.94965°
Longitude
38.88866°
Altitude
350.353 km
Speed
7.698 km/s
Apparent Right ascension
20h 01m 02s
Apparent Declination
-78° 45' 30"
Sunlit
Object is in full shadow
Visualization observer readout
Local Sidereal Time
17:28:25
Azimuth
171.942° S
Elevation
-30.782°
Doppler factor
1
Orbital elements
Apogee altitude
339.607 km
Perigee altitude
336.883 km
Semi-major axis
6,716.382 km
Eccentricity
0.0002
Inclination
97.3651°
RAAN
266.2811°
Arg. of periapsis
266.1363°
True anomaly
Unknown
Mean anomaly
93.9671°
Eccentric anomaly
Unknown
Mean motion
3.94312 °/min
Orbital period
91.3 mins
BSTAR
0.0011435
Loading maneuver chart data...
Loading SW <> Apogee altitude chart data...
Loading historical data...
Loading historical data...
Loading historical data...
Loading historical data...
Loading historical data...
Loading historical data...
Loading historical data...

OBJECT G Visibility forecast

Observer location: undefined°, undefined°

Span
Click to sort rows by Start time (UTC) header in descending order
Start Az.
Max El. time (UTC)
Max El. Az.
Max El.
End time (UTC)
End Az.
4 mins2025-07-02 06:01:48.004Z205.376° SW2025-07-02 06:03:48.004Z280.574° WNW26.924°2025-07-02 06:05:48.004Z327.001° NNW
|